Home > Products > Valid Products > MTR

000
SAGM31 PGUM 060254
MTRGUM
METAR PGUM 060254Z 05015G21KT 10SM BKN037 31/20 A2988 RMK AO2 SLP111
60001 T03110200 58022





000
SAGM31 PGUM 060155
MTRGUM
METAR PGUM 060154Z 04016G22KT 10SM CLR 31/19 A2991 RMK AO2 SLP119
T03110189




000
SAGM31 PGUM 060155
MTRGUM
METAR PGUM 060154Z 04016G22KT 10SM CLR 31/19 A2991 RMK AO2 SLP119
T03110189





000
SAGM31 PGUM 060155
MTRGUM
METAR PGUM 060154Z 04016G22KT 10SM CLR 31/19 A2991 RMK AO2 SLP119
T03110189




000
SAGM31 PGUM 060155
MTRGUM
METAR PGUM 060154Z 04016G22KT 10SM CLR 31/19 A2991 RMK AO2 SLP119
T03110189





000
SAGM31 PGUM 060055
MTRGUM
METAR PGUM 060054Z 06015G22KT 10SM FEW036 31/19 A2994 RMK AO2 SLP130
T03060189




000
SAGM31 PGUM 060055
MTRGUM
METAR PGUM 060054Z 06015G22KT 10SM FEW036 31/19 A2994 RMK AO2 SLP130
T03060189





000
SAGM31 PGUM 060055
MTRGUM
METAR PGUM 060054Z 06015G22KT 10SM FEW036 31/19 A2994 RMK AO2 SLP130
T03060189




000
SAGM31 PGUM 060055
MTRGUM
METAR PGUM 060054Z 06015G22KT 10SM FEW036 31/19 A2994 RMK AO2 SLP130
T03060189





000
SAGM31 PGUM 052354
MTRGUM
METAR PGUM 052354Z 07011KT 10SM SCT034 29/19 A2995 RMK AO2 SLP133
T02940194 10294 20250 51008




000
SAGM31 PGUM 052354
MTRGUM
METAR PGUM 052354Z 07011KT 10SM SCT034 29/19 A2995 RMK AO2 SLP133
T02940194 10294 20250 51008





000
SAGM31 PGUM 052354
MTRGUM
METAR PGUM 052354Z 07011KT 10SM SCT034 29/19 A2995 RMK AO2 SLP133
T02940194 10294 20250 51008




000
SAGM31 PGUM 052354
MTRGUM
METAR PGUM 052354Z 07011KT 10SM SCT034 29/19 A2995 RMK AO2 SLP133
T02940194 10294 20250 51008





000
SAGM31 PGUM 052254
MTRGUM
METAR PGUM 052254Z 06011KT 10SM FEW024 28/20 A2995 RMK AO2 SLP133
T02830200




000
SAGM31 PGUM 052254
MTRGUM
METAR PGUM 052254Z 06011KT 10SM FEW024 28/20 A2995 RMK AO2 SLP133
T02830200





000
SAGM31 PGUM 052254
MTRGUM
METAR PGUM 052254Z 06011KT 10SM FEW024 28/20 A2995 RMK AO2 SLP133
T02830200




000
SAGM31 PGUM 052254
MTRGUM
METAR PGUM 052254Z 06011KT 10SM FEW024 28/20 A2995 RMK AO2 SLP133
T02830200





000
SAGM31 PGUM 052147
MTRGUM
METAR PGUM 052054Z 07010KT 10SM CLR 26/20 A2992 RMK AO2 SLP126
T02560200 53014





000
SAGM31 PGUM 052147
MTRGUM
METAR PGUM 052054Z 07010KT 10SM CLR 26/20 A2992 RMK AO2 SLP126
T02560200 53014




000
SAGM31 PGUM 051756
MTRGUM
METAR PGUM 051754Z COR 07010KT 10SM FEW025 25/21 A2988 RMK AO2
SLP111 60000 T02500211 10261 20250 56012





000
SAGM31 PGUM 051756
MTRGUM
METAR PGUM 051754Z COR 07010KT 10SM FEW025 25/21 A2988 RMK AO2
SLP111 60000 T02500211 10261 20250 56012




000
SAGM31 PGUM 051756
MTRGUM
METAR PGUM 051754Z COR 07010KT 10SM FEW025 25/21 A2988 RMK AO2
SLP111 60000 T02500211 10261 20250 56012





000
SAGM31 PGUM 051755
MTRGUM
METAR PGUM 051754Z 07010KT 10SM CLR 25/21 A2988 RMK AO2 SLP111 60000
T02500211 10261 20250 56012





000
SAGM31 PGUM 051755
MTRGUM
METAR PGUM 051754Z 07010KT 10SM CLR 25/21 A2988 RMK AO2 SLP111 60000
T02500211 10261 20250 56012




000
SAGM31 PGUM 051755
MTRGUM
METAR PGUM 051754Z 07010KT 10SM CLR 25/21 A2988 RMK AO2 SLP111 60000
T02500211 10261 20250 56012




000
SAGM31 PGUM 051755
MTRGUM
METAR PGUM 051754Z 07010KT 10SM CLR 25/21 A2988 RMK AO2 SLP111 60000
T02500211 10261 20250 56012





000
SAGM31 PGUM 051655
MTRGUM
METAR PGUM 051654Z 07008KT 10SM FEW025 26/22 A2989 RMK AO2 SLP113
T02560217




000
SAGM31 PGUM 051655
MTRGUM
METAR PGUM 051654Z 07008KT 10SM FEW025 26/22 A2989 RMK AO2 SLP113
T02560217





000
SAGM31 PGUM 051655
MTRGUM
METAR PGUM 051654Z 07008KT 10SM FEW025 26/22 A2989 RMK AO2 SLP113
T02560217




000
SAGM31 PGUM 051655
MTRGUM
METAR PGUM 051654Z 07008KT 10SM FEW025 26/22 A2989 RMK AO2 SLP113
T02560217





000
SAGM31 PGUM 051555
MTRGUM
METAR PGUM 051554Z 06011KT 10SM FEW025 26/22 A2990 RMK AO2
RAB1457E06 SLP118 P0000 T02560217




000
SAGM31 PGUM 051555
MTRGUM
METAR PGUM 051554Z 06011KT 10SM FEW025 26/22 A2990 RMK AO2
RAB1457E06 SLP118 P0000 T02560217





000
SAGM31 PGUM 051555
MTRGUM
METAR PGUM 051554Z 06011KT 10SM FEW025 26/22 A2990 RMK AO2
RAB1457E06 SLP118 P0000 T02560217




000
SAGM31 PGUM 051555
MTRGUM
METAR PGUM 051554Z 06011KT 10SM FEW025 26/22 A2990 RMK AO2
RAB1457E06 SLP118 P0000 T02560217





000
SAGM31 PGUM 051454
MTRGUM
METAR PGUM 051454Z 05010KT 10SM FEW020 SCT037 SCT046 26/23 A2992 RMK
AO2 SLP123 T02610228 58007




000
SAGM31 PGUM 051454
MTRGUM
METAR PGUM 051454Z 05010KT 10SM FEW020 SCT037 SCT046 26/23 A2992 RMK
AO2 SLP123 T02610228 58007





000
SAGM31 PGUM 051354
MTRGUM
METAR PGUM 051354Z 07008KT 10SM CLR 26/23 A2993 RMK AO2 SLP126
T02610228 403060233





000
SAGM31 PGUM 051354
MTRGUM
METAR PGUM 051354Z 07008KT 10SM CLR 26/23 A2993 RMK AO2 SLP126
T02610228 403060233




000
SAGM31 PGUM 051255
MTRGUM
METAR PGUM 051254Z 06008KT 10SM CLR 26/23 A2993 RMK AO2 SLP129
T02560228




000
SAGM31 PGUM 051255
MTRGUM
METAR PGUM 051254Z 06008KT 10SM CLR 26/23 A2993 RMK AO2 SLP129
T02560228





000
SAGM31 PGUM 051255
MTRGUM
METAR PGUM 051254Z 06008KT 10SM CLR 26/23 A2993 RMK AO2 SLP129
T02560228




000
SAGM31 PGUM 051255
MTRGUM
METAR PGUM 051254Z 06008KT 10SM CLR 26/23 A2993 RMK AO2 SLP129
T02560228





000
SAGM31 PGUM 051155
MTRGUM
METAR PGUM 051154Z 06008KT 10SM FEW019 SCT100 26/23 A2994 RMK AO2
SLP130 60012 70020 T02610233 10300 20244 51014




000
SAGM31 PGUM 051155
MTRGUM
METAR PGUM 051154Z 06008KT 10SM FEW019 SCT100 26/23 A2994 RMK AO2
SLP130 60012 70020 T02610233 10300 20244 51014





000
SAGM31 PGUM 051055
MTRGUM
METAR PGUM 051054Z 07011KT 10SM FEW065 BKN080 26/23 A2993 RMK AO2
RAE28 SLP127 P0005 T02610233




000
SAGM31 PGUM 051055
MTRGUM
METAR PGUM 051054Z 07011KT 10SM FEW065 BKN080 26/23 A2993 RMK AO2
RAE28 SLP127 P0005 T02610233





000
SAGM31 PGUM 051055
MTRGUM
METAR PGUM 051054Z 07011KT 10SM FEW065 BKN080 26/23 A2993 RMK AO2
RAE28 SLP127 P0005 T02610233




000
SAGM31 PGUM 051055
MTRGUM
METAR PGUM 051054Z 07011KT 10SM FEW065 BKN080 26/23 A2993 RMK AO2
RAE28 SLP127 P0005 T02610233





000
SAGM31 PGUM 050954
MTRGUM
METAR PGUM 050954Z 11006KT 6SM -RA FEW026 BKN043 OVC100 25/23 A2991
RMK AO2 RAB45 SLP123 P0002 T02500233





000
SAGM31 PGUM 050954
MTRGUM
METAR PGUM 050954Z 11006KT 6SM -RA FEW026 BKN043 OVC100 25/23 A2991
RMK AO2 RAB45 SLP123 P0002 T02500233




000
SAGM31 PGUM 050954
MTRGUM
METAR PGUM 050954Z 11006KT 6SM -RA FEW026 BKN043 OVC100 25/23 A2991
RMK AO2 RAB45 SLP123 P0002 T02500233




000
SAGM31 PGUM 050954
MTRGUM
METAR PGUM 050954Z 11006KT 6SM -RA FEW026 BKN043 OVC100 25/23 A2991
RMK AO2 RAB45 SLP123 P0002 T02500233





000
SAGM31 PGUM 050854
MTRGUM
METAR PGUM 050854Z 04008KT 10SM FEW029 BKN075 OVC095 26/23 A2990 RMK
AO2 RAB20E36 SLP117 P0001 60001 T02560233 53012





000
SAGM31 PGUM 050854
MTRGUM
METAR PGUM 050854Z 04008KT 10SM FEW029 BKN075 OVC095 26/23 A2990 RMK
AO2 RAB20E36 SLP117 P0001 60001 T02560233 53012




000
SAGM31 PGUM 050854
MTRGUM
METAR PGUM 050854Z 04008KT 10SM FEW029 BKN075 OVC095 26/23 A2990 RMK
AO2 RAB20E36 SLP117 P0001 60001 T02560233 53012




000
SAGM31 PGUM 050854
MTRGUM
METAR PGUM 050854Z 04008KT 10SM FEW029 BKN075 OVC095 26/23 A2990 RMK
AO2 RAB20E36 SLP117 P0001 60001 T02560233 53012





000
SAGM31 PGUM 050754
MTRGUM
METAR PGUM 050754Z 06008KT 10SM FEW045 SCT060 OVC090 27/24 A2988 RMK
AO2 RAE01B37E48 SLP111 P0000 T02670244





000
SAGM31 PGUM 050655
MTRGUM
METAR PGUM 050654Z 06013KT 9SM -RA SCT023 BKN039 BKN050 28/23 A2987
RMK AO2 RAB51 SLP108 P0000 T02780233




000
SAGM31 PGUM 050655
MTRGUM
METAR PGUM 050654Z 06013KT 9SM -RA SCT023 BKN039 BKN050 28/23 A2987
RMK AO2 RAB51 SLP108 P0000 T02780233





000
SAGM31 PGUM 050655
MTRGUM
METAR PGUM 050654Z 06013KT 9SM -RA SCT023 BKN039 BKN050 28/23 A2987
RMK AO2 RAB51 SLP108 P0000 T02780233





000
SAGM31 PGUM 050655
MTRGUM
METAR PGUM 050654Z 06013KT 9SM -RA SCT023 BKN039 BKN050 28/23 A2987
RMK AO2 RAB51 SLP108 P0000 T02780233




000
SAGM31 PGUM 050555
MTRGUM
METAR PGUM 050554Z 08014KT 10SM SCT023 SCT034 30/23 A2986 RMK AO2
SLP104 60000 T03000228 10306 20261 56015





000
SAGM31 PGUM 050555
MTRGUM
METAR PGUM 050554Z 08014KT 10SM SCT023 SCT034 30/23 A2986 RMK AO2
SLP104 60000 T03000228 10306 20261 56015




000
SAGM31 PGUM 050555
MTRGUM
METAR PGUM 050554Z 08014KT 10SM SCT023 SCT034 30/23 A2986 RMK AO2
SLP104 60000 T03000228 10306 20261 56015




000
SAGM31 PGUM 050555
MTRGUM
METAR PGUM 050554Z 08014KT 10SM SCT023 SCT034 30/23 A2986 RMK AO2
SLP104 60000 T03000228 10306 20261 56015





000
SAGM31 PGUM 050455
MTRGUM
METAR PGUM 050454Z 08012KT 10SM FEW021 30/24 A2987 RMK AO2 SLP107
T03040236 PNO $




000
SAGM31 PGUM 050455
MTRGUM
METAR PGUM 050454Z 08012KT 10SM FEW021 30/24 A2987 RMK AO2 SLP107
T03040236 PNO $





000
SAGM31 PGUM 050354
MTRGUM
METAR PGUM 050354Z 10013G20KT 10SM FEW022 30/23 A2988 RMK AO2 SLP111
T02970234 PNO $




000
SAGM31 PGUM 050354
MTRGUM
METAR PGUM 050354Z 10013G20KT 10SM FEW022 30/23 A2988 RMK AO2 SLP111
T02970234 PNO $





000
SAGM31 PGUM 050354
MTRGUM
METAR PGUM 050354Z 10013G20KT 10SM FEW022 30/23 A2988 RMK AO2 SLP111
T02970234 PNO $




000
SAGM31 PGUM 050354
MTRGUM
METAR PGUM 050354Z 10013G20KT 10SM FEW022 30/23 A2988 RMK AO2 SLP111
T02970234 PNO $





000
SAGM31 PGUM 050254
MTRGUM
METAR PGUM 050254Z 08014G21KT 10SM SCT023 29/23 A2991 RMK AO2 SLP119
60000 T02930233 58016 PNO $




000
SAGM31 PGUM 050254
MTRGUM
METAR PGUM 050254Z 08014G21KT 10SM SCT023 29/23 A2991 RMK AO2 SLP119
60000 T02930233 58016 PNO $





000
SAGM31 PGUM 050155
MTRGUM
METAR PGUM 050154Z 09013KT 10SM CLR 29/23 A2993 RMK AO2 RAE0058
SLP127 P0000 T02940228





000
SAGM31 PGUM 050155
MTRGUM
METAR PGUM 050154Z 09013KT 10SM CLR 29/23 A2993 RMK AO2 RAE0058
SLP127 P0000 T02940228




000
SAGM31 PGUM 050155
MTRGUM
METAR PGUM 050154Z 09013KT 10SM CLR 29/23 A2993 RMK AO2 RAE0058
SLP127 P0000 T02940228





000
SAGM31 PGUM 050155
MTRGUM
METAR PGUM 050154Z 09013KT 10SM CLR 29/23 A2993 RMK AO2 RAE0058
SLP127 P0000 T02940228




000
SAGM31 PGUM 050055
MTRGUM
METAR PGUM 050054Z 07009KT 8SM -RA FEW022 SCT040 BKN050 27/24 A2995
RMK AO2 RAB42 SLP135 T02670239




000
SAGM31 PGUM 050055
MTRGUM
METAR PGUM 050054Z 07009KT 8SM -RA FEW022 SCT040 BKN050 27/24 A2995
RMK AO2 RAB42 SLP135 T02670239





000
SAGM31 PGUM 050055
MTRGUM
METAR PGUM 050054Z 07009KT 8SM -RA FEW022 SCT040 BKN050 27/24 A2995
RMK AO2 RAB42 SLP135 T02670239




000
SAGM31 PGUM 050055
MTRGUM
METAR PGUM 050054Z 07009KT 8SM -RA FEW022 SCT040 BKN050 27/24 A2995
RMK AO2 RAB42 SLP135 T02670239





000
SAGM31 PGUM 050053
MTRGUM
SPECI PGUM 050052Z 08008KT 5SM -RA BR FEW022 SCT035 BKN050 26/24
A2996 RMK AO2 RAB42





000
SAGM31 PGUM 050053
MTRGUM
SPECI PGUM 050052Z 08008KT 5SM -RA BR FEW022 SCT035 BKN050 26/24
A2996 RMK AO2 RAB42





000
SAGM31 PGUM 050053
MTRGUM
SPECI PGUM 050052Z 08008KT 5SM -RA BR FEW022 SCT035 BKN050 26/24
A2996 RMK AO2 RAB42




000
SAGM31 PGUM 050045
MTRGUM
SPECI PGUM 050044Z 08014G24KT 4SM -RA SCT022 BKN029 28/23 A2996 RMK
AO2 RAB42




000
SAGM31 PGUM 050045
MTRGUM
SPECI PGUM 050044Z 08014G24KT 4SM -RA SCT022 BKN029 28/23 A2996 RMK
AO2 RAB42





000
SAGM31 PGUM 050033
MTRGUM
SPECI PGUM 050032Z 08013G19KT 10SM SCT025 29/22 A2995 RMK AO2





000
SAGM31 PGUM 050033
MTRGUM
SPECI PGUM 050032Z 08013G19KT 10SM SCT025 29/22 A2995 RMK AO2




000
SAGM31 PGUM 050011
MTRGUM
SPECI PGUM 050010Z 08011G19KT 10SM BKN023 29/22 A2996 RMK AO2





000
SAGM31 PGUM 050011
MTRGUM
SPECI PGUM 050010Z 08011G19KT 10SM BKN023 29/22 A2996 RMK AO2




000
SAGM31 PGUM 050011
MTRGUM
SPECI PGUM 050010Z 08011G19KT 10SM BKN023 29/22 A2996 RMK AO2





000
SAGM31 PGUM 050011
MTRGUM
SPECI PGUM 050010Z 08011G19KT 10SM BKN023 29/22 A2996 RMK AO2




000
SAGM31 PGUM 042354
MTRGUM
METAR PGUM 042354Z 08013G18KT 10SM SCT023 29/22 A2995 RMK AO2 SLP135
60008 T02890222 10289 20239 51014




000
SAGM31 PGUM 042354
MTRGUM
METAR PGUM 042354Z 08013G18KT 10SM SCT023 29/22 A2995 RMK AO2 SLP135
60008 T02890222 10289 20239 51014





000
SAGM31 PGUM 042354
MTRGUM
METAR PGUM 042354Z 08013G18KT 10SM SCT023 29/22 A2995 RMK AO2 SLP135
60008 T02890222 10289 20239 51014




000
SAGM31 PGUM 042354
MTRGUM
METAR PGUM 042354Z 08013G18KT 10SM SCT023 29/22 A2995 RMK AO2 SLP135
60008 T02890222 10289 20239 51014





000
SAGM31 PGUM 042254
MTRGUM
METAR PGUM 042254Z 08013KT 10SM FEW024 28/22 A2995 RMK AO2 SLP134
T02780222




000
SAGM31 PGUM 042254
MTRGUM
METAR PGUM 042254Z 08013KT 10SM FEW024 28/22 A2995 RMK AO2 SLP134
T02780222




000
SAGM31 PGUM 042254
MTRGUM
METAR PGUM 042254Z 08013KT 10SM FEW024 28/22 A2995 RMK AO2 SLP134
T02780222





000
SAGM31 PGUM 042155
MTRGUM
METAR PGUM 042154Z 08009KT 10SM CLR 26/22 A2993 RMK AO2 SLP127
T02610222




000
SAGM31 PGUM 042155
MTRGUM
METAR PGUM 042154Z 08009KT 10SM CLR 26/22 A2993 RMK AO2 SLP127
T02610222





000
SAGM31 PGUM 042054
MTRGUM
METAR PGUM 042054Z 08011KT 10SM SCT021 25/23 A2991 RMK AO2 SLP122
60006 T02500228 53013




000
SAGM31 PGUM 042054
MTRGUM
METAR PGUM 042054Z 08011KT 10SM SCT021 25/23 A2991 RMK AO2 SLP122
60006 T02500228 53013





000
SAGM31 PGUM 041955
MTRGUM
METAR PGUM 041954Z 08008KT 10SM FEW025 24/23 A2989 RMK AO2 RAE13
SLP113 P0006 T02440228




000
SAGM31 PGUM 041955
MTRGUM
METAR PGUM 041954Z 08008KT 10SM FEW025 24/23 A2989 RMK AO2 RAE13
SLP113 P0006 T02440228





000
SAGM31 PGUM 041854
MTRGUM
METAR PGUM 041854Z 09013G19KT 5SM RA BR SCT016 BKN028 24/22 A2988
RMK AO2 RAB49 SLP109 P0000 T02440222




000
SAGM31 PGUM 041854
MTRGUM
METAR PGUM 041854Z 09013G19KT 5SM RA BR SCT016 BKN028 24/22 A2988
RMK AO2 RAB49 SLP109 P0000 T02440222





000
SAGM31 PGUM 041854
MTRGUM
METAR PGUM 041854Z 09013G19KT 5SM RA BR SCT016 BKN028 24/22 A2988
RMK AO2 RAB49 SLP109 P0000 T02440222




000
SAGM31 PGUM 041854
MTRGUM
METAR PGUM 041854Z 09013G19KT 5SM RA BR SCT016 BKN028 24/22 A2988
RMK AO2 RAB49 SLP109 P0000 T02440222





000
SAGM31 PGUM 041755
MTRGUM
METAR PGUM 041754Z 05007KT 10SM FEW055 24/22 A2987 RMK AO2 RAE09
SLP108 P0000 60000 T02440222 10261 20233 56013




000
SAGM31 PGUM 041755
MTRGUM
METAR PGUM 041754Z 05007KT 10SM FEW055 24/22 A2987 RMK AO2 RAE09
SLP108 P0000 60000 T02440222 10261 20233 56013




000
SAGM31 PGUM 041655
MTRGUM
METAR PGUM 041654Z 06008KT 9SM -RA SCT016 SCT047 BKN055 25/22 A2988
RMK AO2 RAB53 SLP111 P0000 T02500222




000
SAGM31 PGUM 041655
MTRGUM
METAR PGUM 041654Z 06008KT 9SM -RA SCT016 SCT047 BKN055 25/22 A2988
RMK AO2 RAB53 SLP111 P0000 T02500222





000
SAGM31 PGUM 041655
MTRGUM
METAR PGUM 041654Z 06008KT 9SM -RA SCT016 SCT047 BKN055 25/22 A2988
RMK AO2 RAB53 SLP111 P0000 T02500222





000
SAGM31 PGUM 041655
MTRGUM
METAR PGUM 041654Z 06008KT 9SM -RA SCT016 SCT047 BKN055 25/22 A2988
RMK AO2 RAB53 SLP111 P0000 T02500222




000
SAGM31 PGUM 041554
MTRGUM
METAR PGUM 041554Z 02003KT 10SM FEW035 24/21 A2989 RMK AO2 SLP114
T02440206




000
SAGM31 PGUM 041554
MTRGUM
METAR PGUM 041554Z 02003KT 10SM FEW035 24/21 A2989 RMK AO2 SLP114
T02440206





000
SAGM31 PGUM 041455
MTRGUM
METAR PGUM 041454Z 06006KT 10SM CLR 26/21 A2991 RMK AO2 SLP121
T02560206 58012





000
SAGM31 PGUM 041354
MTRGUM
METAR PGUM 041354Z 06006KT 10SM CLR 26/21 A2992 RMK AO2 SLP125
T02560206 403170250





000
SAGM31 PGUM 041354
MTRGUM
METAR PGUM 041354Z 06006KT 10SM CLR 26/21 A2992 RMK AO2 SLP125
T02560206 403170250




000
SAGM31 PGUM 041354
MTRGUM
METAR PGUM 041354Z 06006KT 10SM CLR 26/21 A2992 RMK AO2 SLP125
T02560206 403170250





000
SAGM31 PGUM 041255
MTRGUM
METAR PGUM 041254Z 05008KT 10SM FEW026 26/21 A2994 RMK AO2 SLP130
T02610206




000
SAGM31 PGUM 041255
MTRGUM
METAR PGUM 041254Z 05008KT 10SM FEW026 26/21 A2994 RMK AO2 SLP130
T02610206





000
SAGM31 PGUM 041155
MTRGUM
METAR PGUM 041154Z 05011KT 10SM CLR 26/21 A2995 RMK AO2 SLP133
T02610206 10306 20256 51017




000
SAGM31 PGUM 041155
MTRGUM
METAR PGUM 041154Z 05011KT 10SM CLR 26/21 A2995 RMK AO2 SLP133
T02610206 10306 20256 51017





000
SAGM31 PGUM 041155
MTRGUM
METAR PGUM 041154Z 05011KT 10SM CLR 26/21 A2995 RMK AO2 SLP133
T02610206 10306 20256 51017




000
SAGM31 PGUM 041155
MTRGUM
METAR PGUM 041154Z 05011KT 10SM CLR 26/21 A2995 RMK AO2 SLP133
T02610206 10306 20256 51017





000
SAGM31 PGUM 041055
MTRGUM
METAR PGUM 041054Z 06010KT 10SM CLR 27/21 A2994 RMK AO2 SLP131
T02670206




000
SAGM31 PGUM 041055
MTRGUM
METAR PGUM 041054Z 06010KT 10SM CLR 27/21 A2994 RMK AO2 SLP131
T02670206




000
SAGM31 PGUM 041055
MTRGUM
METAR PGUM 041054Z 06010KT 10SM CLR 27/21 A2994 RMK AO2 SLP131
T02670206





000
SAGM31 PGUM 040954
MTRGUM
METAR PGUM 040954Z 06012KT 10SM FEW027 27/21 A2992 RMK AO2 SLP125
T02670206





000
SAGM31 PGUM 040954
MTRGUM
METAR PGUM 040954Z 06012KT 10SM FEW027 27/21 A2992 RMK AO2 SLP125
T02670206




000
SAGM31 PGUM 040854
MTRGUM
METAR PGUM 040854Z 06013KT 10SM FEW037 27/21 A2990 RMK AO2 SLP116
T02720206 53016





000
SAGM31 PGUM 040854
MTRGUM
METAR PGUM 040854Z 06013KT 10SM FEW037 27/21 A2990 RMK AO2 SLP116
T02720206 53016




000
SAGM31 PGUM 040854
MTRGUM
METAR PGUM 040854Z 06013KT 10SM FEW037 27/21 A2990 RMK AO2 SLP116
T02720206 53016





000
SAGM31 PGUM 040754
MTRGUM
METAR PGUM 040754Z 06014G22KT 10SM FEW027 28/21 A2988 RMK AO2 SLP110
T02780211




000
SAGM31 PGUM 040754
MTRGUM
METAR PGUM 040754Z 06014G22KT 10SM FEW027 28/21 A2988 RMK AO2 SLP110
T02780211





000
SAGM31 PGUM 040655
MTRGUM
METAR PGUM 040654Z 07020G24KT 10SM FEW029 29/21 A2986 RMK AO2 PK WND
08028/0616 SLP104 T02940206




000
SAGM31 PGUM 040655
MTRGUM
METAR PGUM 040654Z 07020G24KT 10SM FEW029 29/21 A2986 RMK AO2 PK WND
08028/0616 SLP104 T02940206





000
SAGM31 PGUM 040655
MTRGUM
METAR PGUM 040654Z 07020G24KT 10SM FEW029 29/21 A2986 RMK AO2 PK WND
08028/0616 SLP104 T02940206





000
SAGM31 PGUM 040655
MTRGUM
METAR PGUM 040654Z 07020G24KT 10SM FEW029 29/21 A2986 RMK AO2 PK WND
08028/0616 SLP104 T02940206




000
SAGM31 PGUM 040555
MTRGUM
METAR PGUM 040554Z 07019G28KT 10SM CLR 30/21 A2985 RMK AO2 PK WND
06030/0534 SLP100 T03000211 10317 20289 56013




000
SAGM31 PGUM 040555
MTRGUM
METAR PGUM 040554Z 07019G28KT 10SM CLR 30/21 A2985 RMK AO2 PK WND
06030/0534 SLP100 T03000211 10317 20289 56013





000
SAGM31 PGUM 040555
MTRGUM
METAR PGUM 040554Z 07019G28KT 10SM CLR 30/21 A2985 RMK AO2 PK WND
06030/0534 SLP100 T03000211 10317 20289 56013




000
SAGM31 PGUM 040555
MTRGUM
METAR PGUM 040554Z 07019G28KT 10SM CLR 30/21 A2985 RMK AO2 PK WND
06030/0534 SLP100 T03000211 10317 20289 56013





000
SAGM31 PGUM 040455
MTRGUM
METAR PGUM 040454Z 07018G24KT 10SM FEW025 SCT032 BKN039 31/22 A2986
RMK AO2 PK WND 07030/0409 SLP102 T03060222





000
SAGM31 PGUM 040455
MTRGUM
METAR PGUM 040454Z 07018G24KT 10SM FEW025 SCT032 BKN039 31/22 A2986
RMK AO2 PK WND 07030/0409 SLP102 T03060222




000
SAGM31 PGUM 040455
MTRGUM
METAR PGUM 040454Z 07018G24KT 10SM FEW025 SCT032 BKN039 31/22 A2986
RMK AO2 PK WND 07030/0409 SLP102 T03060222




000
SAGM31 PGUM 040455
MTRGUM
METAR PGUM 040454Z 07018G24KT 10SM FEW025 SCT032 BKN039 31/22 A2986
RMK AO2 PK WND 07030/0409 SLP102 T03060222





000
SAGM31 PGUM 040354
MTRGUM
METAR PGUM 040354Z 07022G29KT 10SM FEW027 SCT033 29/22 A2987 RMK AO2
PK WND 06029/0346 SLP108 T02940217





000
SAGM31 PGUM 040354
MTRGUM
METAR PGUM 040354Z 07022G29KT 10SM FEW027 SCT033 29/22 A2987 RMK AO2
PK WND 06029/0346 SLP108 T02940217




000
SAGM31 PGUM 040354
MTRGUM
METAR PGUM 040354Z 07022G29KT 10SM FEW027 SCT033 29/22 A2987 RMK AO2
PK WND 06029/0346 SLP108 T02940217





000
SAGM31 PGUM 040354
MTRGUM
METAR PGUM 040354Z 07022G29KT 10SM FEW027 SCT033 29/22 A2987 RMK AO2
PK WND 06029/0346 SLP108 T02940217




000
SAGM31 PGUM 040254
MTRGUM
METAR PGUM 040254Z 08021G27KT 10SM FEW027 31/22 A2989 RMK AO2 PK WND
08029/0239 SLP113 T03110217 58021




000
SAGM31 PGUM 040212
MTRGUM
SPECI PGUM 040211Z 07018G29KT 10SM SCT027 31/22 A2991 RMK AO2 PK WND
08029/0207





000
SAGM31 PGUM 040212
MTRGUM
SPECI PGUM 040211Z 07018G29KT 10SM SCT027 31/22 A2991 RMK AO2 PK WND
08029/0207




000
SAGM31 PGUM 040155
MTRGUM
METAR PGUM 040154Z 06021G26KT 10SM BKN027 31/22 A2991 RMK AO2 PK WND
05029/0121 SLP120 T03110222




000
SAGM31 PGUM 040155
MTRGUM
METAR PGUM 040154Z 06021G26KT 10SM BKN027 31/22 A2991 RMK AO2 PK WND
05029/0121 SLP120 T03110222





000
SAGM31 PGUM 040155
MTRGUM
METAR PGUM 040154Z 06021G26KT 10SM BKN027 31/22 A2991 RMK AO2 PK WND
05029/0121 SLP120 T03110222




000
SAGM31 PGUM 040155
MTRGUM
METAR PGUM 040154Z 06021G26KT 10SM BKN027 31/22 A2991 RMK AO2 PK WND
05029/0121 SLP120 T03110222





000
SAGM31 PGUM 040055
MTRGUM
METAR PGUM 040054Z 06022G29KT 10SM FEW024 SCT029 SCT036 30/22 A2994
RMK AO2 PK WND 05029/0053 SLP129 T03000222





000
SAGM31 PGUM 040055
MTRGUM
METAR PGUM 040054Z 06022G29KT 10SM FEW024 SCT029 SCT036 30/22 A2994
RMK AO2 PK WND 05029/0053 SLP129 T03000222





000
SAGM31 PGUM 040055
MTRGUM
METAR PGUM 040054Z 06022G29KT 10SM FEW024 SCT029 SCT036 30/22 A2994
RMK AO2 PK WND 05029/0053 SLP129 T03000222




000
SAGM31 PGUM 040055
MTRGUM
METAR PGUM 040054Z 06022G29KT 10SM FEW024 SCT029 SCT036 30/22 A2994
RMK AO2 PK WND 05029/0053 SLP129 T03000222




000
SAGM31 PGUM 040039
MTRGUM
SPECI PGUM 040038Z 06020G27KT 10SM FEW026 BKN031 30/22 A2994 RMK AO2
PK WND 05028/0002





000
SAGM31 PGUM 040039
MTRGUM
SPECI PGUM 040038Z 06020G27KT 10SM FEW026 BKN031 30/22 A2994 RMK AO2
PK WND 05028/0002




000
SAGM31 PGUM 040039
MTRGUM
SPECI PGUM 040038Z 06020G27KT 10SM FEW026 BKN031 30/22 A2994 RMK AO2
PK WND 05028/0002





000
SAGM31 PGUM 040039
MTRGUM
SPECI PGUM 040038Z 06020G27KT 10SM FEW026 BKN031 30/22 A2994 RMK AO2
PK WND 05028/0002




000
SAGM31 PGUM 040021
MTRGUM
SPECI PGUM 040020Z 07017G27KT 10SM BKN029 BKN033 29/22 A2995 RMK AO2
PK WND 05028/0002





000
SAGM31 PGUM 040021
MTRGUM
SPECI PGUM 040020Z 07017G27KT 10SM BKN029 BKN033 29/22 A2995 RMK AO2
PK WND 05028/0002





000
SAGM31 PGUM 040021
MTRGUM
SPECI PGUM 040020Z 07017G27KT 10SM BKN029 BKN033 29/22 A2995 RMK AO2
PK WND 05028/0002




000
SAGM31 PGUM 040021
MTRGUM
SPECI PGUM 040020Z 07017G27KT 10SM BKN029 BKN033 29/22 A2995 RMK AO2
PK WND 05028/0002




000
SAGM31 PGUM 032355
MTRGUM
METAR PGUM 032354Z 07016G25KT 10SM FEW025 SCT048 29/22 A2995 RMK AO2
PK WND 06027/2322 SLP134 60000 T02940217 10294 20250 51010





000
SAGM31 PGUM 032355
MTRGUM
METAR PGUM 032354Z 07016G25KT 10SM FEW025 SCT048 29/22 A2995 RMK AO2
PK WND 06027/2322 SLP134 60000 T02940217 10294 20250 51010




000
SAGM31 PGUM 032355
MTRGUM
METAR PGUM 032354Z 07016G25KT 10SM FEW025 SCT048 29/22 A2995 RMK AO2
PK WND 06027/2322 SLP134 60000 T02940217 10294 20250 51010





000
SAGM31 PGUM 032254
MTRGUM
METAR PGUM 032254Z 06020G26KT 10SM FEW026 BKN046 28/22 A2995 RMK AO2
PK WND 06026/2254 RAB19E28 SLP133 P0000 T02780217





000
SAGM31 PGUM 032254
MTRGUM
METAR PGUM 032254Z 06020G26KT 10SM FEW026 BKN046 28/22 A2995 RMK AO2
PK WND 06026/2254 RAB19E28 SLP133 P0000 T02780217




000
SAGM31 PGUM 032254
MTRGUM
METAR PGUM 032254Z 06020G26KT 10SM FEW026 BKN046 28/22 A2995 RMK AO2
PK WND 06026/2254 RAB19E28 SLP133 P0000 T02780217




000
SAGM31 PGUM 032254
MTRGUM
METAR PGUM 032254Z 06020G26KT 10SM FEW026 BKN046 28/22 A2995 RMK AO2
PK WND 06026/2254 RAB19E28 SLP133 P0000 T02780217





000
SAGM31 PGUM 032154
MTRGUM
METAR PGUM 032154Z 07011KT 10SM FEW025 SCT040 27/21 A2994 RMK AO2
SLP130 T02670211





000
SAGM31 PGUM 032154
MTRGUM
METAR PGUM 032154Z 07011KT 10SM FEW025 SCT040 27/21 A2994 RMK AO2
SLP130 T02670211




000
SAGM31 PGUM 032154
MTRGUM
METAR PGUM 032154Z 07011KT 10SM FEW025 SCT040 27/21 A2994 RMK AO2
SLP130 T02670211




000
SAGM31 PGUM 032154
MTRGUM
METAR PGUM 032154Z 07011KT 10SM FEW025 SCT040 27/21 A2994 RMK AO2
SLP130 T02670211





000
SAGM31 PGUM 032055
MTRGUM
METAR PGUM 032054Z 07009KT 10SM FEW030 SCT045 26/21 A2992 RMK AO2
SLP125 T02560211 53017




000
SAGM31 PGUM 032055
MTRGUM
METAR PGUM 032054Z 07009KT 10SM FEW030 SCT045 26/21 A2992 RMK AO2
SLP125 T02560211 53017





000
SAGM31 PGUM 031955
MTRGUM
METAR PGUM 031954Z 06010KT 10SM FEW035 26/22 A2989 RMK AO2 SLP115
T02560217




000
SAGM31 PGUM 031955
MTRGUM
METAR PGUM 031954Z 06010KT 10SM FEW035 26/22 A2989 RMK AO2 SLP115
T02560217





000
SAGM31 PGUM 031955
MTRGUM
METAR PGUM 031954Z 06010KT 10SM FEW035 26/22 A2989 RMK AO2 SLP115
T02560217





000
SAGM31 PGUM 031855
MTRGUM
METAR PGUM 031854Z 07011KT 10SM FEW029 26/21 A2988 RMK AO2 SLP110
T02610211





000
SAGM31 PGUM 031855
MTRGUM
METAR PGUM 031854Z 07011KT 10SM FEW029 26/21 A2988 RMK AO2 SLP110
T02610211




000
SAGM31 PGUM 031855
MTRGUM
METAR PGUM 031854Z 07011KT 10SM FEW029 26/21 A2988 RMK AO2 SLP110
T02610211




000
SAGM31 PGUM 031855
MTRGUM
METAR PGUM 031854Z 07011KT 10SM FEW029 26/21 A2988 RMK AO2 SLP110
T02610211





000
SAGM31 PGUM 031754
MTRGUM
METAR PGUM 031754Z 06014G19KT 10SM CLR 26/21 A2987 RMK AO2 SLP107
T02560206 10267 20256 55008




000
SAGM31 PGUM 031754
MTRGUM
METAR PGUM 031754Z 06014G19KT 10SM CLR 26/21 A2987 RMK AO2 SLP107
T02560206 10267 20256 55008





000
SAGM31 PGUM 031754
MTRGUM
METAR PGUM 031754Z 06014G19KT 10SM CLR 26/21 A2987 RMK AO2 SLP107
T02560206 10267 20256 55008




000
SAGM31 PGUM 031754
MTRGUM
METAR PGUM 031754Z 06014G19KT 10SM CLR 26/21 A2987 RMK AO2 SLP107
T02560206 10267 20256 55008





000
SAGM31 PGUM 031654
MTRGUM
METAR PGUM 031654Z 06015G21KT 10SM FEW026 26/21 A2987 RMK AO2 SLP107
T02560211




000
SAGM31 PGUM 031654
MTRGUM
METAR PGUM 031654Z 06015G21KT 10SM FEW026 26/21 A2987 RMK AO2 SLP107
T02560211





000
SAGM31 PGUM 031654
MTRGUM
METAR PGUM 031654Z 06015G21KT 10SM FEW026 26/21 A2987 RMK AO2 SLP107
T02560211





000
SAGM31 PGUM 031654
MTRGUM
METAR PGUM 031654Z 06015G21KT 10SM FEW026 26/21 A2987 RMK AO2 SLP107
T02560211




000
SAGM31 PGUM 031554
MTRGUM
METAR PGUM 031554Z 07016G21KT 10SM CLR 26/21 A2988 RMK AO2 SLP110
T02560206





000
SAGM31 PGUM 031554
MTRGUM
METAR PGUM 031554Z 07016G21KT 10SM CLR 26/21 A2988 RMK AO2 SLP110
T02560206




000
SAGM31 PGUM 031455
MTRGUM
METAR PGUM 031454Z 06014G21KT 10SM FEW032 26/21 A2990 RMK AO2 SLP115
T02560211 58002




000
SAGM31 PGUM 031455
MTRGUM
METAR PGUM 031454Z 06014G21KT 10SM FEW032 26/21 A2990 RMK AO2 SLP115
T02560211 58002




000
SAGM31 PGUM 031455
MTRGUM
METAR PGUM 031454Z 06014G21KT 10SM FEW032 26/21 A2990 RMK AO2 SLP115
T02560211 58002





000
SAGM31 PGUM 031455
MTRGUM
METAR PGUM 031454Z 06014G21KT 10SM FEW032 26/21 A2990 RMK AO2 SLP115
T02560211 58002





000
SAGM31 PGUM 031355
MTRGUM
METAR PGUM 031354Z 06011KT 10SM FEW025 26/22 A2991 RMK AO2 SLP120
T02560217 403060233




000
SAGM31 PGUM 031355
MTRGUM
METAR PGUM 031354Z 06011KT 10SM FEW025 26/22 A2991 RMK AO2 SLP120
T02560217 403060233





000
SAGM31 PGUM 031355
MTRGUM
METAR PGUM 031354Z 06011KT 10SM FEW025 26/22 A2991 RMK AO2 SLP120
T02560217 403060233





000
SAGM31 PGUM 031255
MTRGUM
METAR PGUM 031254Z 07013KT 10SM FEW027 26/22 A2990 RMK AO2 SLP118
T02560217





000
SAGM31 PGUM 031255
MTRGUM
METAR PGUM 031254Z 07013KT 10SM FEW027 26/22 A2990 RMK AO2 SLP118
T02560217




000
SAGM31 PGUM 031208
MTRGUM
METAR PGUM 031154Z COR 06011KT 10SM FEW030 26/22 A2990 RMK AO2
SLP118 60013 70015 T02560217 10278 20244 51009





000
SAGM31 PGUM 031208
MTRGUM
METAR PGUM 031154Z COR 06011KT 10SM FEW030 26/22 A2990 RMK AO2
SLP118 60013 70015 T02560217 10278 20244 51009




000
SAGM31 PGUM 031208
MTRGUM
METAR PGUM 031154Z COR 06011KT 10SM FEW030 26/22 A2990 RMK AO2
SLP118 60013 70015 T02560217 10278 20244 51009




000
SAGM31 PGUM 031154
MTRGUM
METAR PGUM 031154Z 06011KT 10SM FEW030 26/22 A2990 RMK AO2 SLP118
60009 70013 T02560217 10278 20244 51009




000
SAGM31 PGUM 031154
MTRGUM
METAR PGUM 031154Z 06011KT 10SM FEW030 26/22 A2990 RMK AO2 SLP118
60009 70013 T02560217 10278 20244 51009





000
SAGM31 PGUM 031154
MTRGUM
METAR PGUM 031154Z 06011KT 10SM FEW030 26/22 A2990 RMK AO2 SLP118
60009 70013 T02560217 10278 20244 51009





000
SAGM31 PGUM 031054
MTRGUM
METAR PGUM 031054Z 07012KT 10SM FEW020 26/22 A2990 RMK AO2 SLP117
T02560217




000
SAGM31 PGUM 031054
MTRGUM
METAR PGUM 031054Z 07012KT 10SM FEW020 26/22 A2990 RMK AO2 SLP117
T02560217





000
SAGM31 PGUM 031054
MTRGUM
METAR PGUM 031054Z 07012KT 10SM FEW020 26/22 A2990 RMK AO2 SLP117
T02560217




000
SAGM31 PGUM 031054
MTRGUM
METAR PGUM 031054Z 07012KT 10SM FEW020 26/22 A2990 RMK AO2 SLP117
T02560217





000
SAGM31 PGUM 030955
MTRGUM
METAR PGUM 030954Z 07010KT 10SM FEW025 26/22 A2989 RMK AO2 SLP113
T02560222




000
SAGM31 PGUM 030955
MTRGUM
METAR PGUM 030954Z 07010KT 10SM FEW025 26/22 A2989 RMK AO2 SLP113
T02560222





000
SAGM31 PGUM 030855
MTRGUM
METAR PGUM 030854Z 07012KT 10SM FEW023 26/23 A2988 RMK AO2 RAE0759
SLP110 P0002 60009 T02560228 51007





000
SAGM31 PGUM 030855
MTRGUM
METAR PGUM 030854Z 07012KT 10SM FEW023 26/23 A2988 RMK AO2 RAE0759
SLP110 P0002 60009 T02560228 51007




000
SAGM31 PGUM 030803
MTRGUM
SPECI PGUM 030802Z 09008KT 7SM FEW020 BKN033 OVC065 24/23 A2987 RMK
AO2 RAE0759 P0002





000
SAGM31 PGUM 030803
MTRGUM
SPECI PGUM 030802Z 09008KT 7SM FEW020 BKN033 OVC065 24/23 A2987 RMK
AO2 RAE0759 P0002




000
SAGM31 PGUM 030803
MTRGUM
SPECI PGUM 030802Z 09008KT 7SM FEW020 BKN033 OVC065 24/23 A2987 RMK
AO2 RAE0759 P0002





000
SAGM31 PGUM 030803
MTRGUM
SPECI PGUM 030802Z 09008KT 7SM FEW020 BKN033 OVC065 24/23 A2987 RMK
AO2 RAE0759 P0002




000
SAGM31 PGUM 030754
MTRGUM
METAR PGUM 030753Z 08014G23KT 2 1/2SM +RA BR FEW013 OVC031 24/23
A2987 RMK AO2 RAB30 SLP109 P0007 T02440228




000
SAGM31 PGUM 030754
MTRGUM
METAR PGUM 030753Z 08014G23KT 2 1/2SM +RA BR FEW013 OVC031 24/23
A2987 RMK AO2 RAB30 SLP109 P0007 T02440228





000
SAGM31 PGUM 030754
MTRGUM
METAR PGUM 030753Z 08014G23KT 2 1/2SM +RA BR FEW013 OVC031 24/23
A2987 RMK AO2 RAB30 SLP109 P0007 T02440228




000
SAGM31 PGUM 030753
MTRGUM
SPECI PGUM 030752Z 08015G23KT 2 1/2SM +RA BR FEW015 OVC031 24/23
A2987 RMK AO2 RAB30 P0006





000
SAGM31 PGUM 030753
MTRGUM
SPECI PGUM 030752Z 08015G23KT 2 1/2SM +RA BR FEW015 OVC031 24/23
A2987 RMK AO2 RAB30 P0006




000
SAGM31 PGUM 030753
MTRGUM
SPECI PGUM 030752Z 08015G23KT 2 1/2SM +RA BR FEW015 OVC031 24/23
A2987 RMK AO2 RAB30 P0006





000
SAGM31 PGUM 030744
MTRGUM
SPECI PGUM 030743Z 09014G20KT 4SM RA BR FEW017 BKN029 OVC090 25/23
A2987 RMK AO2 RAB30 P0003





000
SAGM31 PGUM 030744
MTRGUM
SPECI PGUM 030743Z 09014G20KT 4SM RA BR FEW017 BKN029 OVC090 25/23
A2987 RMK AO2 RAB30 P0003





000
SAGM31 PGUM 030744
MTRGUM
SPECI PGUM 030743Z 09014G20KT 4SM RA BR FEW017 BKN029 OVC090 25/23
A2987 RMK AO2 RAB30 P0003




000
SAGM31 PGUM 030654
MTRGUM
METAR PGUM 030654Z 07014G20KT 10SM FEW026 BKN075 OVC090 28/22 A2987
RMK AO2 SLP107 T02780222




000
SAGM31 PGUM 030654
MTRGUM
METAR PGUM 030654Z 07014G20KT 10SM FEW026 BKN075 OVC090 28/22 A2987
RMK AO2 SLP107 T02780222





000
SAGM31 PGUM 030654
MTRGUM
METAR PGUM 030654Z 07014G20KT 10SM FEW026 BKN075 OVC090 28/22 A2987
RMK AO2 SLP107 T02780222




000
SAGM31 PGUM 030654
MTRGUM
METAR PGUM 030654Z 07014G20KT 10SM FEW026 BKN075 OVC090 28/22 A2987
RMK AO2 SLP107 T02780222





000
SAGM31 PGUM 030600
MTRGUM
METAR PGUM 030554Z COR 09012KT 10SM FEW060 SCT075 OVC095 27/20 A2985
RMK AO2 RAE02 SLP102 P0001 60001 T02720200 10306 20261 58009





000
SAGM31 PGUM 030600
MTRGUM
METAR PGUM 030554Z COR 09012KT 10SM FEW060 SCT075 OVC095 27/20 A2985
RMK AO2 RAE02 SLP102 P0001 60001 T02720200 10306 20261 58009




000
SAGM31 PGUM 030600
MTRGUM
METAR PGUM 030554Z COR 09012KT 10SM FEW060 SCT075 OVC095 27/20 A2985
RMK AO2 RAE02 SLP102 P0001 60001 T02720200 10306 20261 58009





000
SAGM31 PGUM 030600
MTRGUM
METAR PGUM 030554Z COR 09012KT 10SM FEW060 SCT075 OVC095 27/20 A2985
RMK AO2 RAE02 SLP102 P0001 60001 T02720200 10306 20261 58009




000
SAGM31 PGUM 030554
MTRGUM
METAR PGUM 030554Z 09012KT 10SM FEW060 SCT075 OVC095 27/20 A2985 RMK
AO2 RAE02 SLP102 P0001 60003 T02720200 10306 20261 58009




000
SAGM31 PGUM 030554
MTRGUM
METAR PGUM 030554Z 09012KT 10SM FEW060 SCT075 OVC095 27/20 A2985 RMK
AO2 RAE02 SLP102 P0001 60003 T02720200 10306 20261 58009





000
SAGM31 PGUM 030554
MTRGUM
METAR PGUM 030554Z 09012KT 10SM FEW060 SCT075 OVC095 27/20 A2985 RMK
AO2 RAE02 SLP102 P0001 60003 T02720200 10306 20261 58009




000
SAGM31 PGUM 030504
MTRGUM
SPECI PGUM 030503Z 08015KT 10SM FEW018 BKN046 OVC100 26/23 A2987 RMK
AO2 RAE02 P0000




000
SAGM31 PGUM 030504
MTRGUM
SPECI PGUM 030503Z 08015KT 10SM FEW018 BKN046 OVC100 26/23 A2987 RMK
AO2 RAE02 P0000





000
SAGM31 PGUM 030504
MTRGUM
SPECI PGUM 030503Z 08015KT 10SM FEW018 BKN046 OVC100 26/23 A2987 RMK
AO2 RAE02 P0000





000
SAGM31 PGUM 030504
MTRGUM
SPECI PGUM 030503Z 08015KT 10SM FEW018 BKN046 OVC100 26/23 A2987 RMK
AO2 RAE02 P0000




000
SAGM31 PGUM 030455
MTRGUM
METAR PGUM 030454Z 08020G29KT 7SM RA SCT017 BKN026 BKN040 27/23
A2987 RMK AO2 PK WND 07029/0445 RAB51 SLP109 P0000 T02670233




000
SAGM31 PGUM 030455
MTRGUM
METAR PGUM 030454Z 08020G29KT 7SM RA SCT017 BKN026 BKN040 27/23
A2987 RMK AO2 PK WND 07029/0445 RAB51 SLP109 P0000 T02670233





000
SAGM31 PGUM 030455
MTRGUM
METAR PGUM 030454Z 08020G29KT 7SM RA SCT017 BKN026 BKN040 27/23
A2987 RMK AO2 PK WND 07029/0445 RAB51 SLP109 P0000 T02670233





000
SAGM31 PGUM 030455
MTRGUM
METAR PGUM 030454Z 08020G29KT 7SM RA SCT017 BKN026 BKN040 27/23
A2987 RMK AO2 PK WND 07029/0445 RAB51 SLP109 P0000 T02670233




000
SAGM31 PGUM 030453
MTRGUM
SPECI PGUM 030452Z 08021G29KT 7SM -RA SCT017 BKN026 BKN034 27/23
A2987 RMK AO2 PK WND 07029/0445 RAB51 P0000




000
SAGM31 PGUM 030453
MTRGUM
SPECI PGUM 030452Z 08021G29KT 7SM -RA SCT017 BKN026 BKN034 27/23
A2987 RMK AO2 PK WND 07029/0445 RAB51 P0000





000
SAGM31 PGUM 030453
MTRGUM
SPECI PGUM 030452Z 08021G29KT 7SM -RA SCT017 BKN026 BKN034 27/23
A2987 RMK AO2 PK WND 07029/0445 RAB51 P0000




000
SAGM31 PGUM 030453
MTRGUM
SPECI PGUM 030452Z 08021G29KT 7SM -RA SCT017 BKN026 BKN034 27/23
A2987 RMK AO2 PK WND 07029/0445 RAB51 P0000





000
SAGM31 PGUM 030355
MTRGUM
METAR PGUM 030354Z 08009G18KT 10SM BKN060 BKN075 28/22 A2988 RMK AO2
SLP111 T02830217




000
SAGM31 PGUM 030355
MTRGUM
METAR PGUM 030354Z 08009G18KT 10SM BKN060 BKN075 28/22 A2988 RMK AO2
SLP111 T02830217





    US Dept of Commerce
    National Oceanic and Atmospheric Administration
    National Weather Service
    1325 East West Highway
    Silver Spring, MD 20910
    Page Author: NWS Internet Services Team
Disclaimer
Information Quality
Credits
Glossary
Privacy Policy
Freedom of Information Act (FOIA)
About Us
Career Opportunities